Powrót do katalogu

ICEYE-X57

AktywnyNaukaSSO
NORAD 64578·PAYLOAD·🇺🇸 United States

Wystrzelony Jun 23, 2025 z Vandenberg Space Force Base

Loading…

Następne Przeloty (najbliższe 24 godziny)

TLE

ŚwieżeSource: Space-Track

Epoka: Sep 14, 2026, 22:30 UTC

1 64578U 25135BC  26257.93789921  .00003979  00000-0  31777-3 0  9992
2 64578  97.8198  14.7905 0001884  50.4616 309.6774 15.00845254 67488

Śledź ICEYE-X57 w czasie rzeczywistym z AllMySat

Download on the App Store